Location: Zapote
(9.9191°N, 84.0597°W)
Time: 17:34:27
(UTC-06:00)

Transit 2A - Pass Details

Date: 02 March 2021
Orbit: 602 x 957 km, 66.7° (Epoch: 16 April)

Event Time Altitude Azimuth Distance (km) Brightness Sun altitude
Rises 04:42:02 0° 336° (NNW) 2,856 - -17.5°
Reaches altitude 10° 04:44:14 10° 334° (NNW) 1,973 - -16.9°
Exits shadow 04:44:23 11° 334° (NNW) 1,914 7.8 -16.9°
Maximum altitude 04:48:38 72° 250° (WSW) 677 5.5 -15.8°
Drops below altitude 10° 04:53:22 10° 166° (SSE) 2,124 8.5 -14.7°
Sets 04:55:48 0° 164° (SSE) 3,095 9.4 -14.1°
